Location: Alladorf
(49.9620°N, 11.3790°E)
Time: 20:52:00
(UTC+00:00)

Cosmos 2228 Rocket - Pass Details

Date: 29 November 2020
Orbit: 618 x 652 km, 82.5° (Epoch: 25 January)

Event Time Altitude Azimuth Distance (km) Brightness Sun altitude
Exits shadow 05:43:31 - 338° (NNW) 2,580 5.8 -10.1°
Reaches altitude 10° 05:45:04 10° 331° (NNW) 2,009 5.2 -9.9°
Maximum altitude 05:48:55 30° 271° (W) 1,136 3.9 -9.3°
Drops below altitude 10° 05:52:43 10° 211° (SSW) 1,983 5.6 -8.8°
Sets 05:55:08 0° 200° (SSW) 2,882 6.5 -8.4°
